Tracking 29892 objects as of 21-Nov-2024
HD Live streaming from Space Station
objects crossing your sky now

DELTA 1 DEB

Track DELTA 1 DEB now!
10-day predictions


NORAD ID: 12290
Int'l Code: 1978-026EJ
Perigee: 797.6 km
Apogee: 916.8 km
Inclination: 99.1 °
Period: 101.9 minutes
Semi major axis: 7228 km
RCS: 0.0142 m2 (small)
Launch date: March 5, 1978
Source: United States (US)
Launch site: AIR FORCE WESTERN TEST RANGE (AFWTR)

Note: This is SATELLITE DEBRIS
Your satellite tracking list
Your tracking list is empty




NASA's NSSDC Master Catalog

Two Line Element Set (TLE):
1 12290U 78026EJ  24325.36721357  .00000660  00000-0  36805-3 0  9994
2 12290  99.0935 306.7727 0082418 118.3690 242.5822 14.12719231232748
Source of the keplerian elements: AFSPC